Wind_Speed
21 18 15 11 9 7 5 7 6 6 4 3 5 5 7 9 9 9 14 15 16 17 17 14 15 15 15 17 18 19 21 21 21 24 23 25 26 30 31 36 34 32 37
24 19 15 12 10 7 6 3 3 4 3 3 5 7 9 9 9 9 14 13 16 16 15 16 17 16 18 18 17 20 22 21 18 18 23 18 18 21 24 29 31 38 39
28 22 17 14 10 8 5 4 3 3 5 4 5 7 7 8 8 11 11 13 14 15 16 16 18 19 19 18 20 19 18 20 21 15 12 12 11 31 13 15 26 30 32
26 22 19 15 11 8 7 5 3 1 4 5 6 8 8 9 11 11 12 15 14 16 16 17 19 20 20 20 20 20 19 20 22 20 15 18 22 15 23 22 24 17 21
25 22 19 15 11 8 6 5 2 0 3 5 6 7 8 9 11 12 15 14 15 15 16 17 18 20 21 21 21 22 21 21 22 24 22 22 24 24 27 39 32 31 36
23 20 17 14 11 7 6 5 4 2 3 4 6 7 9 10 11 13 14 14 16 16 16 19 21 20 21 22 22 24 24 23 24 23 24 24 25 24 26 32 34 34 29
21 20 17 14 11 8 6 5 4 2 2 4 5 7 8 10 10 12 13 16 16 16 17 21 22 23 23 23 22 23 25 25 25 25 27 26 26 28 31 34 38 37 37
21 20 17 15 11 8 6 5 3 2 2 4 6 7 9 8 10 12 13 14 16 17 20 21 22 24 24 24 24 25 24 25 27 28 27 29 29 32 36 33 34 37 36
20 19 17 15 12 8 6 4 3 2 3 5 6 7 8 9 11 13 13 13 16 18 20 22 22 24 24 24 24 26 27 27 28 30 29 29 29 32 33 34 31 35 37
19 19 17 15 12 9 6 3 2 2 3 5 6 6 6 8 10 12 13 15 16 19 20 21 22 23 24 23 22 25 26 29 27 28 28 29 34 31 33 32 36 39 39
19 19 17 14 11 8 5 3 2 2 3 5 7 8 10 11 11 11 14 15 17 18 20 21 22 23 23 23 24 24 26 27 29 31 31 32 33 33 34 33 33 39 43
18 18 17 14 10 7 5 2 2 2 4 6 8 8 10 13 13 13 16 16 16 18 20 21 22 22 23 23 24 26 26 28 32 35 36 35 35 37 35 37 38 37 41
20 18 17 16 10 6 4 3 2 4 6 8 8 9 11 13 13 15 17 17 16 17 19 20 22 24 24 24 24 24 30 35 34 35 37 37 38 38 35 37 38 38 39
22 21 20 18 11 7 4 2 3 5 6 7 8 9 11 13 13 15 16 17 18 18 18 20 20 21 23 23 22 31 34 37 39 40 38 36 34 37 35 36 43 40 40
22 19 17 17 11 6 1 2 3 4 7 7 8 9 11 12 14 16 17 16 17 18 18 21 21 21 23 20 30 33 33 39 40 38 36 36 35 36 37 37 38 39 38
21 18 13 14 10 5 2 3 5 6 7 7 8 10 12 13 14 15 16 18 19 18 20 20 20 23 21 25 31 32 36 37 34 36 36 37 38 34 35 39 37 40 39
20 18 15 11 9 5 2 1 3 4 6 7 9 10 12 13 15 16 15 18 19 19 19 20 21 23 23 28 32 33 35 33 33 35 36 38 35 35 37 39 42 45 44
22 18 15 11 7 5 3 4 3 5 5 7 8 10 12 13 15 16 16 18 19 21 21 21 21 24 23 29 32 34 34 33 33 34 35 33 36 37 37 46 51 50 45
21 18 14 10 8 6 5 5 4 5 6 8 8 10 11 13 14 17 18 18 19 19 20 20 22 23 24 29 34 37 35 35 38 37 33 31 35 37 41 41 44 48 50
19 17 14 11 8 7 6 6 5 5 6 7 8 10 11 12 14 16 17 17 19 19 19 21 22 22 26 30 34 36 34 36 41 40 35 33 34 36 37 36 36 43 47
19 15 13 10 9 8 7 6 5 6 6 7 8 9 11 12 15 15 15 16 17 19 21 22 22 23 27 31 33 34 33 34 39 39 39 36 35 33 32 32 31 37 43
17 14 13 12 9 8 7 6 7 6 6 7 8 9 11 12 13 14 15 15 18 19 22 24 25 26 28 29 33 34 33 33 36 37 38 39 38 35 32 32 35 36 34
16 14 13 12 11 10 8 7 7 7 7 7 8 9 11 10 12 13 16 17 19 21 23 25 27 29 29 31 34 34 34 33 35 33 35 38 39 40 40 38 38 39 38
15 14 13 12 12 10 9 9 8 7 7 7 8 8 10 11 12 13 14 16 18 21 23 25 27 29 32 36 38 36 34 35 36 36 39 41 44 45 47 46 45 44 45
15 14 13 13 11 9 9 9 8 8 7 7 8 9 10 12 12 13 17 16 16 19 21 25 25 29 31 35 35 36 33 35 36 37 42 46 50 51 53 53 53 51 51
15 14 13 13 11 10 9 8 8 8 8 8 9 11 10 11 12 12 12 17 21 22 22 25 24 26 26 30 32 34 30 31 35 36 42 47 49 50 54 55 56 54 54
Wind_Direction
204 201 198 194 185 191 197 215 239 256 277 317 325 315 317 329 327 330 329 333 329 330 333 327 324 325 322 319 323 318 317 313 311 308 304 291 281 277 275 254 259 257 251
200 200 202 195 187 186 189 200 225 258 274 305 320 327 328 325 329 333 335 333 328 328 331 324 323 318 320 323 324 323 322 315 315 307 308 304 296 285 274 262 260 262 260
197 201 201 198 190 180 174 174 220 257 283 323 340 337 346 340 328 327 331 322 329 328 328 327 324 322 322 321 322 324 324 313 307 305 290 311 300 320 287 264 270 258 261
200 203 199 197 192 185 174 164 202 273 309 328 345 345 352 343 329 331 322 329 327 328 328 327 327 324 322 321 319 319 314 311 303 299 285 273 279 296 302 284 269 272 269
196 200 197 196 189 178 168 175 149 57 334 338 343 352 341 335 329 324 323 329 325 327 328 327 325 323 323 320 316 317 314 308 301 296 294 291 292 283 274 284 291 287 277
192 191 193 190 193 173 157 153 131 83 360 353 342 339 336 334 328 324 327 324 328 325 325 323 323 321 320 318 317 313 312 310 304 299 295 290 288 285 280 283 287 289 284
184 186 187 192 190 176 156 139 122 93 13 350 341 339 337 337 328 326 320 323 323 323 324 324 320 319 318 316 316 313 308 308 305 304 302 290 282 282 278 279 280 282 285
182 188 193 191 191 174 152 129 108 76 11 355 348 345 339 334 332 320 320 322 319 321 319 320 320 319 317 316 314 310 309 309 306 304 302 299 290 277 276 275 281 282 280
186 190 187 188 184 173 154 148 111 68 9 357 349 346 340 332 327 327 326 317 322 320 320 319 320 317 316 315 311 310 311 310 309 306 305 302 297 291 288 278 269 275 278
184 185 185 185 180 166 155 136 99 48 7 349 341 337 332 330 326 329 328 325 323 324 320 319 319 317 317 315 313 309 310 307 310 304 301 298 297 295 292 284 282 270 271
182 182 186 183 175 159 148 117 83 35 353 344 340 337 331 330 334 332 328 328 326 325 322 320 320 319 318 318 314 312 310 308 305 301 301 298 296 294 293 289 282 279 272
181 182 182 176 169 158 138 117 62 17 348 346 345 344 338 335 336 330 326 329 331 326 323 324 322 322 321 321 319 317 313 307 307 306 305 304 303 298 296 294 289 284 273
179 176 182 172 165 151 131 101 44 1 339 342 350 339 338 337 336 333 332 332 331 326 327 327 326 326 327 325 325 312 302 307 308 307 304 302 303 303 301 293 291 293 286
182 177 186 189 175 165 151 102 360 344 355 356 354 343 344 340 338 332 336 337 330 334 332 328 326 328 328 330 316 314 316 314 313 313 309 307 305 301 297 289 290 293 278
182 180 184 186 185 179 168 10 11 351 357 359 356 348 345 341 336 339 343 336 335 334 333 328 330 331 333 327 323 325 320 318 320 318 314 309 301 298 297 296 293 292 283
184 178 176 180 171 159 110 60 358 352 7 2 356 347 344 344 342 343 344 338 339 340 332 334 334 334 334 326 325 330 327 327 324 321 317 311 308 308 299 297 295 291 283
182 174 171 169 158 158 105 333 2 5 8 12 359 348 348 349 346 346 344 340 343 342 338 339 337 333 336 329 336 336 336 332 330 324 320 316 313 311 307 300 292 290 288
166 168 168 166 152 126 90 65 51 35 24 14 358 348 353 354 349 344 348 346 347 342 342 339 335 336 339 332 338 341 341 338 332 328 324 322 316 313 306 299 299 300 299
155 157 159 149 135 119 108 97 71 42 26 12 358 357 356 355 348 352 352 350 343 342 342 337 340 341 339 337 343 346 345 340 338 335 333 324 321 315 315 311 305 306 302
142 148 141 138 122 111 102 94 72 43 25 13 5 360 2 355 351 355 351 349 345 343 340 344 344 343 339 344 347 348 346 342 342 343 339 332 326 322 325 320 313 311 308
142 139 136 130 117 107 104 92 61 40 26 18 13 5 4 4 359 356 351 350 347 346 347 348 349 347 345 345 348 349 348 346 345 347 348 344 343 337 335 332 322 314 311
136 135 128 118 111 108 104 84 59 40 35 27 19 13 9 8 3 359 356 356 355 354 353 351 351 351 350 346 348 350 351 352 352 353 357 355 357 354 352 343 339 336 330
135 133 128 123 109 98 92 79 56 48 40 32 26 20 11 14 8 4 4 1 2 1 357 355 353 352 351 348 351 352 351 354 356 358 3 4 4 6 3 5 0 352 346
136 135 132 118 103 89 82 74 57 57 48 42 32 28 15 25 13 6 8 4 4 5 2 358 355 355 353 354 355 353 353 354 358 3 7 10 11 12 11 8 6 356 354
136 136 125 115 109 101 85 70 59 64 58 52 37 39 24 20 17 7 1 5 1 5 5 1 357 358 354 353 352 353 354 352 357 6 10 11 12 12 10 9 6 359 359
135 127 124 122 115 105 92 77 68 68 74 59 42 37 26 21 17 14 9 356 357 359 360 351 360 1 355 353 354 355 357 357 1 6 6 9 6 5 6 2 2 360 359
Height
1499 1503 1505 1506 1506 1505 1506 1507 1508 1508 1509 1509 1508 1508 1506 1504 1504 1502 1498 1496 1494 1491 1489 1488 1484 1481 1478 1475 1472 1468 1466 1464 1461 1457 1453 1450 1448 1446 1444 1446 1446 1446 1446
1494 1500 1503 1504 1505 1504 1505 1507 1506 1506 1507 1506 1505 1504 1503 1502 1502 1501 1497 1496 1492 1490 1488 1485 1482 1479 1474 1472 1470 1466 1463 1461 1462 1458 1452 1444 1442 1441 1438 1437 1438 1437 1438
1487 1496 1500 1502 1503 1503 1504 1505 1505 1505 1504 1504 1504 1503 1503 1503 1502 1499 1498 1495 1492 1489 1486 1483 1479 1475 1472 1469 1466 1464 1462 1460 1459 1459 1459 1450 1439 1436 1433 1432 1433 1431 1430
1483 1492 1496 1499 1502 1501 1500 1501 1502 1503 1502 1502 1501 1500 1500 1500 1498 1498 1497 1493 1491 1487 1484 1481 1477 1473 1470 1466 1463 1462 1460 1458 1456 1455 1455 1451 1448 1444 1428 1427 1425 1425 1423
1480 1489 1494 1497 1499 1499 1499 1499 1500 1500 1499 1499 1499 1498 1498 1498 1497 1496 1493 1492 1489 1486 1483 1479 1475 1471 1467 1463 1460 1458 1456 1455 1452 1451 1449 1446 1443 1441 1437 1425 1422 1421 1418
1476 1486 1492 1495 1498 1497 1496 1497 1498 1498 1497 1498 1498 1496 1495 1495 1495 1494 1492 1489 1486 1484 1481 1476 1472 1467 1463 1460 1456 1454 1452 1450 1449 1446 1444 1441 1439 1436 1434 1427 1422 1416 1413
1475 1483 1490 1495 1497 1497 1495 1495 1496 1497 1496 1496 1496 1494 1494 1493 1493 1492 1490 1486 1484 1481 1478 1473 1468 1463 1460 1457 1453 1450 1448 1446 1443 1440 1436 1435 1434 1431 1429 1424 1417 1412 1407
1474 1480 1486 1491 1494 1495 1494 1493 1494 1496 1496 1495 1494 1493 1492 1492 1491 1489 1487 1485 1482 1478 1473 1469 1464 1460 1456 1452 1448 1445 1443 1441 1437 1434 1430 1429 1428 1425 1422 1419 1416 1405 1401
1472 1478 1483 1487 1490 1492 1491 1490 1491 1493 1493 1492 1491 1491 1490 1489 1488 1485 1483 1482 1479 1475 1471 1466 1460 1455 1452 1448 1445 1442 1438 1434 1431 1428 1424 1421 1421 1417 1415 1411 1409 1406 1395
1471 1476 1481 1485 1487 1487 1487 1487 1488 1490 1490 1489 1488 1488 1487 1484 1483 1480 1478 1476 1474 1471 1467 1462 1457 1451 1447 1444 1440 1437 1434 1429 1425 1422 1419 1415 1414 1410 1407 1404 1400 1397 1393
1470 1475 1480 1484 1485 1485 1486 1486 1486 1488 1487 1487 1485 1485 1483 1480 1477 1475 1472 1470 1468 1466 1463 1458 1453 1447 1443 1439 1436 1433 1428 1425 1419 1417 1413 1408 1407 1402 1399 1395 1392 1388 1385
1468 1474 1478 1481 1483 1484 1485 1485 1485 1485 1484 1483 1482 1482 1480 1478 1476 1473 1467 1464 1463 1462 1459 1454 1450 1444 1438 1434 1430 1428 1424 1418 1413 1409 1406 1400 1398 1394 1391 1386 1382 1378 1375
1466 1472 1477 1478 1481 1482 1482 1483 1484 1483 1482 1481 1479 1479 1476 1474 1473 1470 1466 1462 1459 1455 1453 1451 1447 1441 1436 1431 1426 1422 1417 1412 1407 1402 1398 1393 1389 1384 1380 1377 1373 1368 1363
1462 1468 1471 1475 1477 1479 1479 1479 1480 1480 1480 1479 1478 1477 1476 1474 1470 1466 1463 1462 1458 1453 1449 1446 1443 1440 1434 1428 1423 1416 1411 1405 1398 1393 1389 1385 1381 1377 1373 1368 1364 1358 1353
1460 1466 1469 1472 1474 1477 1477 1477 1478 1479 1477 1477 1477 1476 1473 1471 1468 1464 1462 1458 1454 1450 1447 1442 1439 1435 1430 1427 1418 1413 1406 1398 1390 1385 1380 1377 1374 1369 1364 1358 1353 1349 1344
1456 1464 1470 1470 1472 1474 1475 1476 1475 1476 1475 1474 1475 1474 1470 1467 1465 1463 1461 1456 1451 1446 1444 1440 1437 1432 1429 1422 1415 1409 1400 1392 1386 1379 1373 1369 1364 1359 1353 1348 1343 1340 1334
1456 1463 1467 1471 1472 1472 1472 1473 1474 1473 1473 1473 1473 1471 1467 1466 1463 1461 1458 1455 1449 1445 1442 1438 1434 1430 1424 1418 1409 1404 1396 1389 1381 1375 1368 1360 1356 1350 1342 1335 1328 1323 1320
1453 1462 1467 1469 1469 1471 1471 1471 1473 1473 1474 1472 1472 1469 1465 1463 1463 1460 1456 1452 1448 1444 1439 1437 1432 1426 1421 1415 1407 1399 1391 1384 1378 1371 1364 1356 1348 1343 1333 1321 1311 1306 1302
1455 1461 1465 1468 1469 1470 1470 1472 1474 1473 1472 1471 1470 1467 1464 1464 1462 1457 1453 1451 1448 1444 1439 1436 1429 1424 1419 1412 1404 1394 1386 1380 1371 1367 1357 1350 1341 1334 1324 1313 1302 1292 1286
1455 1461 1464 1467 1468 1469 1469 1472 1472 1471 1471 1470 1469 1466 1465 1463 1459 1456 1454 1451 1447 1443 1439 1433 1428 1423 1417 1410 1402 1394 1385 1378 1367 1359 1351 1344 1336 1325 1316 1307 1297 1285 1276
1458 1462 1465 1466 1467 1468 1470 1471 1472 1471 1470 1470 1468 1467 1464 1462 1459 1456 1454 1451 1448 1442 1437 1431 1426 1422 1415 1408 1401 1394 1386 1376 1365 1356 1346 1338 1329 1319 1309 1301 1293 1283 1269
1459 1462 1464 1466 1467 1468 1470 1471 1470 1470 1470 1469 1468 1466 1463 1462 1460 1457 1453 1450 1446 1440 1435 1429 1423 1419 1413 1408 1400 1392 1384 1375 1365 1355 1346 1336 1326 1315 1304 1295 1286 1273 1260
1459 1462 1464 1466 1466 1467 1469 1469 1469 1470 1469 1469 1467 1466 1463 1462 1460 1456 1453 1449 1444 1439 1434 1428 1422 1417 1412 1405 1397 1389 1382 1374 1365 1357 1346 1336 1324 1311 1300 1288 1277 1267 1255
1460 1462 1465 1465 1465 1467 1467 1469 1469 1469 1469 1469 1467 1467 1464 1462 1460 1457 1453 1449 1444 1440 1435 1429 1424 1418 1412 1404 1396 1388 1380 1373 1364 1353 1343 1333 1323 1312 1300 1287 1276 1266 1255
1460 1462 1463 1464 1466 1468 1469 1469 1469 1469 1469 1469 1467 1466 1464 1462 1460 1457 1453 1450 1446 1441 1437 1432 1426 1419 1413 1407 1401 1392 1384 1376 1366 1354 1344 1332 1320 1309 1298 1287 1277 1266 1253
1458 1460 1463 1465 1467 1468 1469 1469 1468 1468 1468 1468 1467 1464 1464 1463 1460 1458 1455 1451 1446 1442 1439 1434 1428 1422 1418 1410 1402 1394 1386 1378 1366 1356 1346 1335 1325 1315 1303 1291 1279 1267 1255